150  
ASUS43 KLSX 220107  
RWRMO  
 
WEATHER SUMMARY FOR MISSOURI  
NATIONAL WEATHER SERVICE SPRINGFIELD MO  
800 PM CDT MON AUG 21 2017  
 
NOTE: "FAIR" INDICATES FEW OR NO CLOUDS BELOW 12,000 FEET WITH NO  
SIGNIFICANT WEATHER AND/OR S TO VISIBILITY
.  
CURRENT SKY AND/OR WEATHER CONDITIONS ARE NOT AVAILABLE FOR  
CHILLICOTHE AND FARMINGTON.  
 
MOZ001>031-035>038-043-044-053-054-220200-   
..NORTHERN AND WESTERN MISSOURI
 
 
 
CITY SKY/WX TMP DP RH WIND PRES REMARKS
 
KANSAS CTY INT CLOUDY 75 69 81 NW17G46 29.93F SQUALL THUNDER  
KANSAS C DTWN CLOUDY 81 75 82 E8 29.92F  
LEE'S SUMMIT CLEAR 79 75 87 SE9 29.96F  
ST JOSEPH RAIN 73 72 96 S15 29.95F FOG  
CHILLICOTHE N/A 72 70 93 CALM 29.96F  
KIRKSVILLE CLOUDY 74 32 21 SW7 29.97F  
 

 
MOZ066>068-077>081-088>096-101>105-220200-   
..SOUTHWEST MISSOURI
 
 
 
CITY SKY/WX TMP DP RH WIND PRES REMARKS
 
SPRINGFIELD CLEAR 82 75 79 S7 30.04F  
JOPLIN CLEAR 85 75 72 S9 30.01F HX 93  
BRANSON PTCLDY 82 73 74 S3 30.08S  
 

 
MOZ032>034-039>042-045>050-055>058-069>072-220200-   
..CENTRAL MISSOURI
 
 
 
CITY SKY/WX TMP DP RH WIND PRES REMARKS
 
COLUMBIA CLOUDY 80 75 84 SW3 30.02F THUNDER  
JEFFERSON CITY CLOUDY 83 78 85 CALM 30.00F HX 93  
ROLLA TSTM 77 69 76 SE7G43 30.05S  
SEDALIA CLEAR 76 71 85 E7 30.01S  
WHITEMAN AFB MOCLDY 77 77 100 SE7 29.97F  
WARRENSBURG CLEAR 77 72 83 E3 29.96F  
OSAGE BEACH CLEAR 83 75 77 S5 30.02F HX 90  
 

 
MOZ051-052-059>065-220200-   
..EAST CENTRAL MISSOURI
 
 
 
CITY SKY/WX TMP DP RH WIND PRES REMARKS
 
ST LOUIS INTL MOCLDY 84 71 65 E8 30.01F  
SPIRIT OF STL MOCLDY 81 77 88 CALM 29.99F  
ST CHARLES CLEAR 79 76 90 CALM 30.00S  
 

 
MOZ072>076-082>087-097>100-106>115-220200-   
..SOUTH CENTRAL AND SOUTHEAST MISSOURI
 
 
 
CITY SKY/WX TMP DP RH WIND PRES REMARKS
 
CAPE GIRARDEAU CLEAR 82 76 81 SE6 30.05R  
FARMINGTON CLEAR 83 75 77 S3 30.06S HX 90  
POPLAR BLUFF CLEAR 82 77 84 CALM 30.04S HX 90  
WEST PLAINS CLEAR 82 71 69 S3 30.09S  
 

 
 
CLICK HERE TO GO TO PREVIOUS BULLETINS.

The Nexlab MO Page Main Text Page